Theta_e
308 309 309 308 307 306 307 309 310 310 310 309 310 314 313 316 318 317 315 316 318 319 318 318 320 321 322 322 322 322 323 322 322 319 318 315 318 318 318 317 318 318 319 319 318
308 308 308 307 306 306 308 311 313 312 310 310 309 313 314 314 316 317 315 316 318 319 319 318 317 317 317 319 320 319 318 318 319 317 317 316 317 318 318 318 318 317 318 318 318
308 307 306 306 305 306 308 311 312 312 311 310 310 312 315 314 316 318 315 317 318 318 319 319 319 319 317 317 317 317 318 316 318 318 316 317 317 318 318 319 316 315 317 317 318
307 307 306 305 305 305 308 311 312 312 311 311 310 312 315 314 316 316 316 317 318 319 318 319 319 319 318 317 315 317 316 315 316 317 318 318 318 318 318 317 317 316 317 318 319
307 307 307 305 305 305 306 309 311 312 311 310 310 313 315 314 316 316 316 317 317 318 317 318 318 318 319 317 317 316 317 317 317 317 318 318 318 318 317 317 318 318 318 318 318
307 307 307 306 305 305 306 308 311 310 310 310 310 313 315 316 318 318 316 317 317 316 316 316 317 317 317 317 318 316 317 318 318 318 317 318 318 317 316 317 317 317 317 318 318
307 307 307 307 306 306 306 308 311 311 311 310 310 313 315 315 320 317 316 317 318 318 317 316 317 318 318 318 318 318 319 315 315 315 318 318 319 318 317 317 317 317 318 318 318
308 308 307 307 306 306 306 308 311 312 312 310 310 312 315 315 318 316 317 317 319 319 318 319 318 317 318 318 313 314 313 317 314 314 317 318 322 317 318 317 317 317 318 318 318
310 309 308 307 306 306 306 307 312 313 313 313 312 314 315 315 316 317 317 317 318 319 319 319 319 318 317 313 312 312 315 315 315 313 317 318 320 316 318 317 317 317 318 318 318
319 311 310 309 307 306 305 307 312 313 314 315 316 315 314 316 317 319 317 318 318 318 319 319 318 316 313 313 317 312 314 313 314 314 317 318 319 316 317 317 316 316 318 318 317
322 322 314 310 309 306 306 309 314 315 313 314 314 314 315 316 318 319 318 318 318 318 317 316 318 319 318 314 311 312 313 314 313 313 319 319 319 318 316 317 316 318 318 317 317
321 321 322 316 311 308 305 314 315 314 315 314 315 314 315 317 317 318 318 318 318 318 313 314 317 316 314 312 313 313 313 314 313 313 318 318 319 317 317 317 317 318 317 316 318
319 321 321 323 315 309 305 313 316 315 314 314 314 314 315 316 317 317 318 318 316 315 314 315 314 313 314 312 313 312 313 312 314 314 315 316 319 316 316 315 316 318 317 318 318
306 317 320 321 321 307 308 315 315 315 311 310 312 314 314 316 316 316 317 318 313 315 311 313 312 312 313 312 312 312 311 312 314 316 319 315 323 317 317 316 317 317 318 319 319
301 303 316 320 321 319 305 315 315 316 314 312 315 316 315 315 314 314 317 317 314 312 312 314 312 312 312 312 311 313 313 315 315 316 318 318 321 319 315 316 318 318 318 320 320
301 300 302 316 320 322 311 307 316 312 313 313 315 315 315 315 315 313 315 315 313 312 311 312 310 311 312 310 311 313 315 313 315 318 324 319 319 320 317 318 318 318 318 320 320
301 301 300 303 316 319 308 314 315 315 311 314 315 315 314 314 314 313 313 312 314 314 314 312 311 310 311 312 312 313 315 320 316 324 323 316 319 320 314 318 318 318 319 319 320
301 300 300 300 302 315 312 315 314 311 312 315 314 314 315 314 314 313 312 314 310 309 310 314 315 311 310 309 313 313 315 319 314 315 318 314 322 319 316 316 316 317 318 318 319
302 301 299 299 301 311 315 317 309 310 311 315 314 316 316 313 314 312 312 312 311 309 314 312 313 309 310 311 313 315 317 311 314 312 319 317 317 313 317 317 316 318 318 318 319
302 301 301 303 301 311 310 312 311 311 314 314 316 316 317 313 313 313 311 311 312 309 309 311 313 309 310 312 313 313 312 319 315 318 317 312 313 316 313 314 317 318 318 318 319
302 302 300 301 309 310 310 312 309 310 309 314 314 315 315 313 312 312 312 312 311 309 309 308 310 309 309 310 315 317 318 311 314 314 316 314 313 311 312 314 318 317 317 318 319
302 302 302 305 309 309 310 309 310 310 308 309 313 313 314 312 311 312 313 312 311 308 310 307 308 309 310 307 308 313 314 313 314 313 313 312 315 311 310 314 317 316 317 318 319
301 302 301 302 301 306 308 309 310 311 309 308 312 314 312 312 314 311 311 310 309 309 310 308 309 311 311 310 309 311 310 309 307 311 313 316 314 310 312 313 316 315 317 318 319
301 302 302 303 303 302 303 307 309 310 311 311 307 307 312 311 309 312 310 310 309 309 311 310 307 311 315 313 310 310 309 308 310 312 309 313 311 310 314 315 314 314 317 318 319
301 302 301 299 304 303 303 303 307 310 310 310 311 309 307 312 311 311 309 309 311 313 310 310 312 308 308 310 308 308 309 308 310 309 312 309 311 311 312 315 314 316 317 317 318
300 301 301 301 301 301 302 303 305 304 308 310 309 309 308 308 311 312 309 309 311 312 308 305 310 309 311 309 310 312 308 308 309 306 307 306 308 308 308 311 313 315 316 317 318
300 300 300 301 301 300 302 303 303 305 307 309 310 310 308 308 308 307 306 307 308 311 308 308 308 309 311 308 309 312 312 309 308 306 310 309 311 305 310 311 313 314 316 317 318
Wind_Speed
7 7 8 8 9 10 12 12 11 10 8 7 6 6 8 8 7 5 5 4 6 7 6 8 8 8 7 5 4 5 3 1 3 5 2 2 1 1 2 4 5 2 5 8 8
7 8 9 9 9 10 12 15 14 11 9 8 7 7 8 9 9 9 4 6 8 5 6 9 8 6 4 4 3 4 2 5 4 4 3 2 3 4 1 5 3 8 3 6 7
8 9 10 10 11 11 12 13 15 13 11 9 7 6 7 7 7 8 8 8 7 5 5 6 6 4 4 4 2 3 3 3 4 11 5 3 3 3 2 1 2 9 8 4 5
9 10 10 11 11 12 14 14 12 14 14 11 7 6 6 6 4 9 10 8 7 4 5 5 4 4 3 2 3 1 6 5 3 3 4 4 3 2 2 4 3 4 2 0 1
10 11 10 11 12 13 14 16 13 12 13 11 7 6 5 6 8 9 10 8 6 5 4 4 4 5 4 4 4 3 3 5 8 9 11 9 9 5 7 5 2 1 1 2 4
11 12 13 12 13 13 14 17 17 12 8 9 8 9 7 6 7 11 10 8 5 3 3 2 4 6 5 3 4 3 5 9 9 3 5 5 3 9 7 6 4 2 2 4 7
13 13 14 14 14 13 14 15 17 14 6 7 9 10 10 12 6 12 10 7 5 2 3 3 4 5 6 3 2 1 3 4 3 2 2 6 2 5 6 7 4 1 5 8 12
14 14 15 15 16 15 14 16 15 12 6 7 9 9 7 8 12 13 12 9 7 4 3 4 3 4 2 3 3 2 3 2 1 4 1 3 6 3 5 6 4 4 10 16 20
16 16 15 16 16 17 15 16 13 8 5 5 8 8 5 9 15 17 13 10 8 6 5 4 2 2 2 3 2 4 1 2 6 3 1 3 4 2 5 5 5 8 15 22 26
21 19 18 17 17 17 15 14 10 8 6 8 9 4 10 7 12 17 17 12 6 8 6 4 2 2 2 2 3 3 2 2 4 2 1 3 10 6 9 6 3 10 18 24 22
21 23 20 18 17 17 15 10 4 3 9 10 9 5 4 10 11 16 19 15 9 6 4 1 2 6 9 5 2 3 2 4 4 4 2 4 7 10 7 4 3 13 19 22 23
20 22 25 18 18 17 13 3 3 5 10 16 26 22 12 13 9 14 20 13 8 5 4 2 6 8 4 5 4 2 2 4 4 3 3 4 12 3 5 3 5 12 20 23 27
19 19 22 22 15 14 8 5 5 6 6 10 22 23 26 21 11 21 23 14 4 6 6 6 4 4 5 4 5 3 4 4 5 2 1 5 4 2 2 3 6 13 14 18 22
19 18 18 22 12 6 4 3 6 5 3 7 6 7 19 14 7 13 25 13 3 9 6 5 4 6 5 4 5 2 4 3 2 1 3 3 4 2 2 1 5 12 12 22 20
18 18 16 15 14 11 6 4 4 4 6 3 5 4 12 17 13 11 27 14 9 7 6 6 4 4 3 5 7 5 2 2 1 2 1 1 2 3 1 3 5 11 15 18 18
19 18 17 15 11 12 9 4 2 3 9 3 6 5 7 3 1 7 11 7 6 4 1 4 2 4 6 2 3 5 4 4 3 2 2 2 2 3 3 2 3 7 11 12 15
22 19 17 16 12 8 5 6 1 6 3 5 5 5 7 6 2 2 7 6 7 4 6 1 3 2 4 4 2 3 3 1 0 1 3 2 0 6 5 5 4 4 7 10 12
22 22 20 18 16 13 9 2 7 6 14 1 4 3 8 6 5 4 6 8 4 5 3 6 4 8 5 5 6 4 5 4 4 2 2 1 5 2 4 8 4 2 5 5 7
24 24 23 20 12 12 9 8 9 7 6 9 2 4 4 4 5 5 7 6 9 9 7 5 4 2 2 3 4 4 4 3 6 1 1 2 5 3 6 5 5 5 4 3 5
22 25 25 9 12 12 4 12 7 3 5 2 18 8 12 8 7 8 9 6 7 12 6 5 3 1 3 5 6 3 8 3 1 3 3 3 4 3 6 8 8 9 7 3 1
19 9 12 10 7 11 9 9 8 24 14 4 5 6 7 8 9 7 9 3 5 7 6 5 2 2 4 5 8 2 2 4 3 2 3 2 4 6 7 9 12 11 11 8 3
9 3 4 6 5 6 9 5 9 16 14 12 5 5 8 9 8 9 13 8 17 16 10 6 4 4 5 2 4 3 5 6 3 5 1 0 5 3 6 9 13 14 13 10 6
6 11 16 13 3 7 10 13 15 17 11 2 11 7 3 8 4 8 8 3 21 11 14 9 3 3 3 3 0 4 5 4 5 3 6 5 4 2 4 7 11 16 14 13 9
5 3 6 15 22 10 14 13 16 18 20 22 6 14 4 3 2 4 6 3 17 10 15 14 4 6 8 5 5 6 7 7 5 4 6 6 2 5 9 10 13 16 17 18 15
11 7 9 3 7 12 13 12 17 10 15 12 10 22 15 4 2 4 1 3 1 8 6 6 7 6 4 2 4 5 8 13 12 7 7 5 11 9 12 15 21 24 23 21 20
9 7 6 12 20 14 13 11 16 22 18 16 17 18 22 13 3 2 3 4 6 5 7 2 5 5 4 5 4 3 5 14 13 3 9 2 8 7 3 15 18 25 28 25 26
21 22 16 12 5 6 11 16 17 12 23 22 17 15 18 23 17 18 18 24 8 6 12 9 7 5 4 4 5 5 15 13 8 6 12 10 11 6 5 10 22 29 34 34 33
Wind_Direction
338 335 337 338 340 339 334 330 324 318 309 298 283 264 254 252 271 274 245 198 151 127 134 133 152 152 135 120 115 115 73 176 220 181 228 235 308 240 266 286 323 252 319 294 304
339 338 336 333 336 339 339 335 326 317 315 301 281 265 257 252 262 255 220 185 162 157 156 161 158 160 111 114 92 84 124 213 205 203 219 217 224 270 226 319 327 297 257 287 286
334 338 336 333 330 334 335 339 330 318 313 293 271 265 263 256 260 253 198 181 177 183 196 165 161 149 96 107 126 145 197 201 246 227 241 250 237 215 231 89 8 296 314 299 271
329 329 328 330 329 331 331 333 331 319 310 292 266 253 256 239 211 182 187 182 191 195 184 160 137 136 96 134 166 205 240 212 267 245 212 221 218 206 169 150 63 36 59 49 201
324 322 322 322 324 328 329 330 328 321 307 286 258 232 245 229 241 192 191 186 188 197 180 170 155 145 163 169 161 198 267 228 264 270 261 247 233 218 157 164 167 236 267 293 302
325 323 320 319 319 323 327 329 325 324 307 277 236 217 207 248 217 198 192 190 186 191 173 154 170 178 164 170 180 210 261 280 290 260 248 194 215 168 184 176 186 222 318 335 325
324 321 319 316 314 317 321 324 323 317 306 263 229 212 216 234 224 191 189 197 189 151 120 155 169 184 162 159 212 244 303 324 214 284 279 174 213 225 176 188 191 266 347 341 331
319 319 318 315 315 313 317 320 322 312 302 257 215 214 233 234 208 193 194 193 196 191 146 125 146 182 180 137 39 72 63 7 290 334 141 181 265 221 199 203 240 301 324 327 325
310 311 312 315 313 312 316 317 318 298 287 245 215 196 248 227 212 210 204 201 211 204 188 172 190 163 129 104 31 14 232 225 312 325 264 193 271 241 204 211 256 322 329 325 319
312 308 308 311 313 311 317 314 309 283 261 243 217 192 229 220 205 200 195 198 176 184 171 197 149 101 74 125 229 194 237 247 244 263 263 248 266 249 223 226 290 333 325 323 324
308 311 305 310 314 315 318 323 300 271 236 225 260 204 169 190 185 192 194 191 178 182 179 128 146 213 216 194 154 148 183 246 248 265 259 257 273 282 221 215 346 341 327 327 327
310 309 307 306 314 317 324 331 346 305 295 260 247 247 237 179 176 189 190 181 174 191 129 40 239 228 177 159 165 167 222 258 287 244 240 294 287 303 179 115 46 340 336 333 328
297 302 311 306 311 312 317 299 294 293 263 269 236 239 229 207 191 194 187 191 159 151 191 182 219 104 150 156 164 201 196 206 232 317 240 314 286 70 69 97 333 349 339 338 334
300 299 296 307 311 318 320 305 305 294 291 265 220 232 203 189 216 190 192 175 171 190 164 236 254 188 163 193 148 238 195 195 201 25 260 350 292 294 155 272 352 324 1 357 353
314 300 295 299 294 300 299 319 300 290 286 209 184 161 175 180 144 172 187 183 163 176 139 243 187 163 163 197 169 214 126 141 146 186 332 255 206 255 175 232 327 336 8 3 9
316 312 297 290 284 283 274 247 245 54 250 250 150 161 128 230 342 120 159 172 147 126 239 232 246 177 192 101 160 137 102 58 63 120 230 213 206 261 189 217 302 318 11 1 17
308 309 303 286 272 269 264 173 122 203 306 205 196 170 159 154 139 160 152 164 154 142 220 334 216 189 144 98 42 91 85 323 143 214 237 139 230 254 171 193 198 307 23 356 21
301 301 300 288 272 259 230 277 197 203 215 60 121 98 180 149 187 168 130 185 224 116 131 169 258 170 183 175 181 174 163 160 212 214 265 310 232 230 161 172 180 252 75 10 23
303 300 293 291 279 256 198 215 224 184 203 168 123 140 223 207 153 142 187 204 194 170 188 151 265 110 87 129 148 176 190 134 107 57 284 238 270 200 155 193 189 162 89 35 10
306 307 304 286 225 220 184 213 252 259 335 242 214 177 185 188 158 178 169 198 202 186 157 207 118 147 141 95 40 175 146 120 54 163 245 264 271 229 191 183 186 161 150 145 244
300 311 299 257 221 200 229 226 246 262 282 301 263 219 189 172 179 198 196 222 217 164 131 138 115 183 127 204 170 145 186 67 116 156 191 273 256 203 172 166 177 170 162 168 195
283 261 264 238 235 236 231 222 231 273 259 247 294 272 194 170 177 196 203 202 174 145 165 178 130 173 186 223 177 177 179 159 149 187 106 297 272 143 166 160 161 165 163 170 178
246 254 259 273 244 247 265 254 242 253 259 245 241 245 238 177 213 200 196 169 162 158 161 178 172 104 26 1 131 206 192 140 111 114 189 161 256 144 160 161 167 159 166 170 167
236 262 219 219 236 240 252 263 256 236 243 259 278 303 221 220 192 260 199 212 188 179 172 138 144 166 190 191 139 189 177 174 145 163 165 223 251 224 206 193 178 174 172 172 173
219 228 217 226 226 231 245 269 254 264 216 229 243 252 274 257 90 228 187 130 116 179 138 144 185 171 215 165 151 170 174 180 202 181 187 208 206 219 210 201 191 183 172 176 176
226 217 222 247 240 247 240 254 256 264 247 223 233 222 244 248 156 309 333 214 184 200 158 221 165 145 210 196 205 232 191 196 212 213 262 202 254 217 206 197 174 184 180 182 183
237 239 241 241 236 243 238 243 253 275 242 252 258 239 228 238 266 301 284 274 255 199 176 159 139 139 211 131 130 272 219 190 198 207 206 211 229 156 181 198 187 187 191 190 186